Location: Buckhorn Peak
(37.6641°N, 120.1241°W)
Time: 05:30:51
(UTC+00:00)

Envisat - Visible Passes

Search period start: 04 October 2024 00:00
Search period end: 14 October 2024 00:00
Orbit: 762 x 764 km, 98.3° (Epoch: 03 October)

Date Brightness Start Highest point End Pass type
(mag) Time Alt. Az. Time Alt. Az. Time Alt. Az.
04 Oct 5.4 10:33:41 10° NNE 10:35:04 18° NE 10:35:04 18° NE visible
04 Oct 4.7 12:13:13 10° NNW 12:15:13 18° NW 12:15:13 18° NW visible
05 Oct 4.6 11:35:00 10° N 11:37:10 25° N 11:37:10 25° N visible
06 Oct 5.1 10:57:26 10° NNE 10:59:07 21° NNE 10:59:07 21° NNE visible
06 Oct 5.0 12:38:24 10° NNW 12:39:15 12° NW 12:39:15 12° NW visible
07 Oct 5.8 10:20:31 10° NE 10:21:04 13° NE 10:21:04 13° NE visible
07 Oct 4.7 11:59:23 10° N 12:01:13 19° NNW 12:01:13 19° NNW visible
08 Oct 4.9 11:21:26 10° N 11:23:09 22° N 11:23:09 22° N visible
09 Oct 5.5 10:44:04 10° NNE 10:45:06 16° NNE 10:45:06 16° NNE visible
09 Oct 5.0 12:24:10 10° NNW 12:25:14 14° NNW 12:25:14 14° NNW visible
10 Oct 4.9 11:45:40 10° N 11:47:10 19° NNW 11:47:10 19° NNW visible
11 Oct 5.2 11:07:55 10° NNE 11:09:07 18° NNE 11:09:07 18° NNE visible
12 Oct 5.9 10:30:46 10° NNE 10:31:03 11° NNE 10:31:03 11° NNE visible
12 Oct 5.0 12:10:10 10° NNW 12:11:11 14° NNW 12:11:11 14° NNW visible
13 Oct 5.1 11:31:59 10° N 11:33:07 17° N 11:33:07 17° N visible
